NZ3C Weather Reports


time (UTC)temp
F
wind
direction
speed
knots
gust
knots
rain 1hr
in
rain 24hr
in
rain mn
in
humidity
%
barometer
mb
20260506070148 59 208 0.0 0.0 0.00 0.00 0.00 85 1016.6
20260506062126 60 287 0.9 0.9 0.00 0.00 0.00 81 1016.7
20260506061621 61 122 0.0 0.9 0.00 0.00 0.00 81 1016.7
20260506061120 61 151 0.0 0.9 0.00 0.00 0.00 81 1016.7
20260506060618 61 98 0.9 1.7 0.00 0.00 0.00 80 1016.8
20260506060114 61 316 1.7 2.6 0.00 0.00 0.00 80 1017.0
20260506051046 62 209 0.0 0.9 0.00 0.00 0.00 78 1017.6
20260506050544 62 322 0.9 1.7 0.00 0.00 0.00 78 1017.8
20260506045034 62 105 1.7 1.7 0.00 0.00 0.00 78 1017.7
20260506044532 62 317 0.9 2.6 0.00 0.00 0.00 78 1017.6
20260506044029 62 277 1.7 1.7 0.00 0.00 0.00 78 1017.6
20260506043526 62 85 1.7 2.6 0.00 0.00 0.00 78 1017.7
20260506043025 62 240 0.0 3.5 0.00 0.00 0.00 78 1017.8
20260506042523 62 275 1.7 2.6 0.00 0.00 0.00 78 1018.0
20260506042021 62 326 0.9 0.9 0.00 0.00 0.00 78 1017.9
20260506041519 63 94 0.0 0.9 0.00 0.00 0.00 77 1017.9
20260506041016 63 98 1.7 2.6 0.00 0.00 0.00 77 1018.0
20260506040514 63 135 1.7 1.7 0.00 0.00 0.00 77 1017.9
20260506040009 63 72 0.9 2.6 0.00 0.00 0.00 76 1017.9
20260506035506 63 242 1.7 2.6 0.00 0.00 0.00 76 1017.6
20260506035003 64 114 0.9 6.1 0.00 0.00 0.00 75 1017.9
20260506034501 64 300 0.0 6.1 0.00 0.00 0.00 75 1018.1
20260506033957 64 178 1.7 2.6 0.00 0.00 0.00 75 1018.1
20260506033455 64 99 0.9 2.6 0.00 0.00 0.00 75 1018.0
20260506032951 64 346 0.9 1.7 0.00 0.00 0.00 75 1018.1
20260506032449 64 278 0.9 1.7 0.00 0.00 0.00 74 1018.0
20260506031945 64 333 0.9 0.9 0.00 0.00 0.00 74 1018.2
20260506031443 64 271 0.0 1.7 0.00 0.00 0.00 74 1018.3
20260506030940 64 53 0.9 1.7 0.00 0.00 0.00 74 1018.1
20260506030438 64 132 0.9 0.9 0.00 0.00 0.00 74 1018.2
20260506025934 65 259 0.0 2.6 0.00 0.00 0.00 73 1018.3
20260506025431 65 24 0.0 0.9 0.00 0.00 0.00 73 1018.0
20260506024928 65 168 0.9 1.7 0.00 0.00 0.00 72 1018.2
20260506024425 65 73 0.9 1.7 0.00 0.00 0.00 72 1018.2
20260506023921 66 278 0.0 1.7 0.00 0.00 0.00 71 1018.0
20260506023418 66 110 0.9 1.7 0.00 0.00 0.00 71 1017.9
20260506022914 66 321 0.9 1.7 0.00 0.00 0.00 70 1017.9
20260506022412 66 336 0.9 2.6 0.00 0.00 0.00 70 1018.0
20260506021910 66 311 1.7 2.6 0.00 0.00 0.00 70 1018.0
20260506021407 66 305 0.9 5.2 0.00 0.00 0.00 69 1017.9
20260506020903 66 306 5.2 7.8 0.00 0.00 0.00 69 1017.8
20260506020402 67 121 0.9 3.5 0.00 0.00 0.00 69 1017.8
20260506015859 67 268 1.7 3.5 0.00 0.00 0.00 69 1017.9
20260506015356 67 76 2.6 3.5 0.00 0.00 0.00 68 1017.8
20260506014853 67 195 4.3 6.1 0.00 0.00 0.00 68 1017.8
20260506014350 68 217 2.6 5.2 0.00 0.00 0.00 68 1017.5
20260506013846 68 298 1.7 7.0 0.00 0.00 0.00 68 1017.5
20260506013344 68 304 0.9 3.5 0.00 0.00 0.00 67 1017.4
20260506012840 68 117 4.3 6.1 0.00 0.00 0.00 67 1017.4
20260506012337 68 288 0.9 2.6 0.00 0.00 0.00 67 1017.4
20260506011835 68 279 0.9 7.0 0.00 0.00 0.00 67 1017.2
20260506011331 68 26 1.7 2.6 0.00 0.00 0.00 67 1017.4
20260506010829 69 30 1.7 2.6 0.00 0.00 0.00 66 1017.1
20260506010326 69 9 2.6 5.2 0.00 0.00 0.00 66 1017.1
20260506005823 69 350 2.6 2.6 0.00 0.00 0.00 66 1017.3
20260506005320 69 321 1.7 5.2 0.00 0.00 0.00 66 1017.2
20260506004816 70 173 0.9 3.5 0.00 0.00 0.00 65 1016.9
20260506004314 70 129 2.6 3.5 0.00 0.00 0.00 64 1017.1
20260506003809 70 56 1.7 1.7 0.00 0.00 0.00 64 1016.8
20260506003306 70 102 1.7 5.2 0.00 0.00 0.00 63 1016.7
20260506002802 71 83 3.5 6.1 0.00 0.00 0.00 63 1016.8
20260506002259 71 298 1.7 2.6 0.00 0.00 0.00 62 1016.5
20260506001754 71 109 2.6 6.1 0.00 0.00 0.00 61 1016.7
20260506001252 72 63 1.7 5.2 0.00 0.00 0.00 61 1016.5
20260506000749 72 93 5.2 13.0 0.00 0.00 0.00 60 1016.5
20260506000247 72 256 3.5 3.5 0.00 0.00 0.00 60 1016.5
20260505235743 73 211 5.2 7.0 0.00 0.00 0.00 59 1016.5
20260505235241 73 285 1.7 11.3 0.00 0.00 0.00 59 1016.5
20260505234737 73 59 1.7 5.2 0.00 0.00 0.00 58 1016.4
20260505234235 73 195 4.3 6.1 0.00 0.00 0.00 57 1016.3
20260505233731 74 85 7.0 9.6 0.00 0.00 0.00 57 1016.4
20260505233230 74 285 1.7 2.6 0.00 0.00 0.00 56 1016.3
20260505232726 75 316 1.7 2.6 0.00 0.00 0.00 54 1016.4
20260505232224 75 95 2.6 5.2 0.00 0.00 0.00 49 1016.3
20260505231720 75 85 1.7 2.6 0.00 0.00 0.00 47 1016.1
20260505231220 76 204 1.7 3.5 0.00 0.00 0.00 48 1016.1
20260505230717 76 265 0.9 6.1 0.00 0.00 0.00 48 1016.2
20260505230214 76 199 2.6 5.2 0.00 0.00 0.00 48 1016.1
20260505225710 77 205 1.7 2.6 0.00 0.00 0.00 48 1016.3
20260505225207 77 80 2.6 3.5 0.00 0.00 0.00 47 1016.3
20260505224702 77 49 1.7 7.8 0.00 0.00 0.00 46 1016.2
20260505224201 78 226 3.5 5.2 0.00 0.00 0.00 46 1016.1
20260505223658 79 237 2.6 6.1 0.00 0.00 0.00 45 1016.2
20260505223153 78 263 0.9 2.6 0.00 0.00 0.00 45 1016.2
20260505222650 78 329 3.5 7.0 0.00 0.00 0.00 45 1016.4
20260505222146 78 288 2.6 6.1 0.00 0.00 0.00 45 1016.4
20260505221643 78 311 1.7 7.8 0.00 0.00 0.00 45 1016.2
20260505221140 79 266 3.5 7.8 0.00 0.00 0.00 44 1016.3
20260505220637 79 338 1.7 3.5 0.00 0.00 0.00 44 1016.3
20260505220135 79 65 1.7 2.6 0.00 0.00 0.00 44 1016.2
20260505215632 79 319 0.9 3.5 0.00 0.00 0.00 44 1015.9
20260505215130 79 340 4.3 7.0 0.00 0.00 0.00 44 1015.9
20260505214628 79 65 6.1 7.8 0.00 0.00 0.00 43 1016.0
20260505214125 79 285 2.6 3.5 0.00 0.00 0.00 44 1016.2
20260505213623 80 351 4.3 7.0 0.00 0.00 0.00 43 1016.2
20260505213119 80 172 2.6 6.1 0.00 0.00 0.00 42 1016.3
20260505212615 80 230 1.7 3.5 0.00 0.00 0.00 42 1016.2
20260505212113 80 234 1.7 2.6 0.00 0.00 0.00 42 1016.5
20260505211609 80 207 0.9 3.5 0.00 0.00 0.00 41 1016.3
20260505211107 81 47 2.6 7.0 0.00 0.00 0.00 41 1016.3
20260505210603 82 26 2.6 5.2 0.00 0.00 0.00 41 1016.2
20260505210100 81 99 4.3 7.8 0.00 0.00 0.00 42 1016.2
20260505205558 82 278 1.7 3.5 0.00 0.00 0.00 41 1016.2
20260505205055 83 331 3.5 7.0 0.00 0.00 0.00 38 1016.2
20260505204552 82 310 1.7 6.1 0.00 0.00 0.00 40 1016.1
20260505204050 82 68 2.6 9.6 0.00 0.00 0.00 40 1016.0
20260505203546 81 246 0.9 7.0 0.00 0.00 0.00 40 1016.3
20260505203043 81 57 3.5 7.8 0.00 0.00 0.00 41 1016.1
20260505202539 81 244 2.6 8.7 0.00 0.00 0.00 41 1016.1
20260505202035 82 106 1.7 6.1 0.00 0.00 0.00 40 1016.2
20260505201532 82 109 7.0 8.7 0.00 0.00 0.00 39 1016.4
20260505201030 81 263 0.9 3.5 0.00 0.00 0.00 41 1016.6
20260505200528 81 98 1.7 3.5 0.00 0.00 0.00 40 1016.7
20260505200024 81 318 0.9 1.7 0.00 0.00 0.00 41 1016.7
20260505195520 82 44 1.7 9.6 0.00 0.00 0.00 42 1016.6
20260505195018 82 234 2.6 6.1 0.00 0.00 0.00 41 1016.5
20260505194515 82 323 2.6 6.1 0.00 0.00 0.00 40 1016.6
20260505194010 82 291 0.9 6.1 0.00 0.00 0.00 42 1017.2
20260505193508 82 192 2.6 6.1 0.00 0.00 0.00 39 1017.1
20260505193005 82 101 1.7 5.2 0.00 0.00 0.00 39 1017.2
20260505192503 82 240 3.5 6.1 0.00 0.00 0.00 39 1017.1
20260505192000 81 277 1.7 6.1 0.00 0.00 0.00 39 1017.5
20260505191459 81 229 2.6 7.0 0.00 0.00 0.00 40 1017.5
20260505190956 81 208 1.7 7.0 0.00 0.00 0.00 40 1017.5
20260505190450 80 197 2.6 2.6 0.00 0.00 0.00 41 1017.5
20260505185946 81 121 3.5 3.5 0.00 0.00 0.00 42 1017.7
20260505185444 81 92 2.6 7.8 0.00 0.00 0.00 40 1017.8
20260505184940 81 296 3.5 6.1 0.00 0.00 0.00 41 1017.7
20260505184437 82 237 2.6 6.1 0.00 0.00 0.00 42 1017.9
20260505183933 81 105 5.2 7.8 0.00 0.00 0.00 40 1018.0
20260505183430 82 102 1.7 7.0 0.00 0.00 0.00 41 1018.0
20260505182927 82 284 1.7 8.7 0.00 0.00 0.00 41 1018.1
20260505182424 82 256 1.7 3.5 0.00 0.00 0.00 38 1018.0
20260505181920 83 261 1.7 3.5 0.00 0.00 0.00 38 1018.1
20260505181418 81 288 1.7 1.7 0.00 0.00 0.00 41 1018.1
20260505180914 81 120 3.5 11.3 0.00 0.00 0.00 41 1018.4
20260505180411 82 287 1.7 3.5 0.00 0.00 0.00 40 1018.2
20260505175908 82 86 1.7 2.6 0.00 0.00 0.00 40 1018.1
20260505175404 82 342 2.6 3.5 0.00 0.00 0.00 40 1018.1
20260505174900 82 152 1.7 2.6 0.00 0.00 0.00 39 1018.2
20260505174358 82 207 3.5 6.1 0.00 0.00 0.00 39 1018.3
20260505173854 81 83 1.7 5.2 0.00 0.00 0.00 42 1018.0
20260505173351 81 79 1.7 7.0 0.00 0.00 0.00 42 1018.3
20260505172848 80 148 0.9 2.6 0.00 0.00 0.00 43 1018.6
20260505172345 81 241 0.0 3.5 0.00 0.00 0.00 43 1018.3
20260505171845 81 243 1.7 7.0 0.00 0.00 0.00 43 1018.3
20260505171342 80 237 1.7 8.7 0.00 0.00 0.00 42 1018.4
20260505170838 79 37 3.5 5.2 0.00 0.00 0.00 46 1018.4
20260505170335 81 102 4.3 7.8 0.00 0.00 0.00 43 1018.5
20260505165831 81 253 1.7 6.1 0.00 0.00 0.00 44 1018.5
20260505165326 81 158 5.2 6.1 0.00 0.00 0.00 43 1018.3
20260505164822 80 269 1.7 3.5 0.00 0.00 0.00 45 1018.5
20260505164319 80 99 1.7 3.5 0.00 0.00 0.00 45 1018.5
20260505163818 80 293 1.7 3.5 0.00 0.00 0.00 43 1018.8
20260505163316 80 275 0.9 6.1 0.00 0.00 0.00 45 1018.6
20260505162814 80 269 2.6 3.5 0.00 0.00 0.00 46 1018.8
20260505162310 80 69 1.7 3.5 0.00 0.00 0.00 44 1018.6
20260505161807 78 61 0.9 2.6 0.00 0.00 0.00 46 1019.1
20260505161304 79 266 3.5 5.2 0.00 0.00 0.00 43 1019.1
20260505160802 78 304 3.5 5.2 0.00 0.00 0.00 44 1019.3
20260505160259 78 275 1.7 1.7 0.00 0.00 0.00 47 1019.3
20260505153238 77 113 0.9 3.5 0.00 0.00 0.00 48 1019.2
20260505152736 77 54 1.7 6.1 0.00 0.00 0.00 48 1019.2
20260505152232 78 289 7.8 8.7 0.00 0.00 0.00 45 1019.2
20260505151732 78 86 0.9 1.7 0.00 0.00 0.00 48 1019.3
20260505151230 77 280 0.9 1.7 0.00 0.00 0.00 50 1019.1
20260505150726 76 283 1.7 3.5 0.00 0.00 0.00 52 1019.2
20260505150223 76 27 1.7 6.1 0.00 0.00 0.00 52 1019.4
20260505140651 73 42 1.7 2.6 0.00 0.00 0.00 55 1019.2
20260505140148 73 274 1.7 5.2 0.00 0.00 0.00 57 1019.3
20260505130112 69 182 1.7 2.6 0.00 0.00 0.00 62 1019.5
20260505124601 68 242 0.9 2.6 0.00 0.00 0.00 65 1019.5
20260505124057 67 255 2.6 2.6 0.00 0.00 0.00 65 1019.6
20260505123554 66 241 0.9 1.7 0.00 0.00 0.00 67 1019.7
20260505123050 66 236 0.0 1.7 0.00 0.00 0.00 67 1019.6
20260505122547 66 280 0.9 5.2 0.00 0.00 0.00 68 1019.6
20260505122044 65 86 1.7 2.6 0.00 0.00 0.00 69 1019.5
20260505121541 65 254 1.7 1.7 0.00 0.00 0.00 69 1019.3
20260505121038 65 232 0.0 1.7 0.00 0.00 0.00 70 1019.3
20260505120534 64 228 0.9 0.9 0.00 0.00 0.00 71 1019.2
20260505120030 62 269 0.0 1.7 0.00 0.00 0.00 75 1019.2
20260505115524 61 283 0.9 0.9 0.00 0.00 0.00 78 1019.3
20260505115022 60 271 0.9 0.9 0.00 0.00 0.00 79 1019.2
20260505114519 59 223 0.9 1.7 0.00 0.00 0.00 81 1019.1
20260505114015 58 201 0.9 1.7 0.00 0.00 0.00 82 1019.1
20260505113512 58 211 0.9 0.9 0.00 0.00 0.00 83 1019.1
20260505113009 57 218 0.0 0.9 0.00 0.00 0.00 85 1019.0
20260505112505 56 204 0.9 0.9 0.00 0.00 0.00 88 1019.1
20260505112003 55 266 0.0 0.0 0.00 0.00 0.00 90 1018.9
20260505111502 54 234 0.0 0.0 0.00 0.00 0.00 91 1018.8
20260505110958 54 234 0.0 0.9 0.00 0.00 0.00 92 1018.7
20260505110455 53 234 0.0 0.0 0.00 0.00 0.00 92 1018.7
20260505101927 53 234 0.0 0.0 0.00 0.00 0.00 90 1018.4
20260505101426 53 234 0.0 0.0 0.00 0.00 0.00 89 1018.4
20260505100922 53 234 0.0 0.0 0.00 0.00 0.00 88 1018.2
20260505100420 54 234 0.0 0.0 0.00 0.00 0.00 88 1018.1
20260505095915 54 234 0.0 0.0 0.00 0.00 0.00 89 1017.9
20260505095413 54 234 0.0 0.0 0.00 0.00 0.00 88 1018.0
20260505094909 54 234 0.0 0.0 0.00 0.00 0.00 88 1017.9
20260505094406 54 234 0.0 0.0 0.00 0.00 0.00 87 1017.9
20260505093901 54 234 0.0 0.0 0.00 0.00 0.00 86 1017.9
20260505093359 54 234 0.0 0.0 0.00 0.00 0.00 86 1017.9
20260505092856 55 234 0.0 0.0 0.00 0.00 0.00 86 1017.8
20260505092354 55 234 0.0 0.0 0.00 0.00 0.00 85 1017.8
20260505091851 55 234 0.0 0.0 0.00 0.00 0.00 84 1017.7
20260505091349 55 234 0.0 0.0 0.00 0.00 0.00 83 1017.6
20260505090847 56 234 0.0 0.0 0.00 0.00 0.00 83 1017.6
20260505090345 56 234 0.0 0.0 0.00 0.00 0.00 82 1017.8
20260505085841 56 234 0.0 0.0 0.00 0.00 0.00 82 1017.6
20260505085340 56 234 0.0 0.0 0.00 0.00 0.00 82 1017.5
20260505084837 56 234 0.0 0.0 0.00 0.00 0.00 80 1017.6
20260505084335 56 234 0.0 0.0 0.00 0.00 0.00 80 1017.6
20260505083832 57 234 0.0 0.0 0.00 0.00 0.00 79 1017.7
20260505083330 57 234 0.0 0.9 0.00 0.00 0.00 78 1017.5
20260505082826 57 235 0.0 0.0 0.00 0.00 0.00 78 1017.6
20260505082322 57 235 0.0 0.0 0.00 0.00 0.00 77 1017.4
20260505081819 58 235 0.0 0.0 0.00 0.00 0.00 76 1017.4
20260505081316 58 234 0.0 0.0 0.00 0.00 0.00 76 1017.2
20260505080812 58 191 0.0 0.0 0.00 0.00 0.00 75 1017.2
20260505080308 59 191 0.0 0.0 0.00 0.00 0.00 74 1017.4
20260505075804 59 93 0.0 0.0 0.00 0.00 0.00 74 1017.3
20260505075304 59 53 0.0 0.0 0.00 0.00 0.00 73 1017.3
20260505074758 59 182 0.0 0.9 0.00 0.00 0.00 73 1017.4
20260505074255 59 174 0.0 0.9 0.00 0.00 0.00 73 1017.5
20260505073753 59 115 0.0 0.0 0.00 0.00 0.00 72 1017.3
20260505073251 59 124 0.0 0.0 0.00 0.00 0.00 72 1017.4
20260505072747 60 171 0.0 0.9 0.00 0.00 0.00 72 1017.3
20260505072243 60 199 1.7 1.7 0.00 0.00 0.00 72 1017.4
20260505071739 60 190 0.0 1.7 0.00 0.00 0.00 71 1017.3
20260505071236 60 99 0.9 0.9 0.00 0.00 0.00 70 1017.1
20260505070734 60 78 0.9 0.9 0.00 0.00 0.00 70 1017.2